Regional Weather Roundup
Issued by NWS Huntsville, AL

Home | Current Version | Previous Version | Text Only | Print | Product List | Glossary On
Versions: 1 2 3 4 5 6 7 8 9 10 11 12 13 14 15 16 17 18 19 20 21 22 23 24 25 26 27 28 29 30 31 32 33 34 35 36 37 38 39 40 41 42 43 44 45 46 47 48 49 50
000
ASUS44 KHUN 030310
RWRHUN

WEATHER ROUNDUP FOR THE TENNESSEE VALLEY
NATIONAL WEATHER SERVICE HUNTSVILLE AL
1000 PM CDT SUN AUG 02 2015

ALZ001>004-030400-
NORTHWEST ALABAMA

CITY           SKY/WX    TMP DP  RH WIND       PRES   REMARKS
COURTLAND HCN    N/A     73 N/A N/A CALM        N/A
BANKHEAD NF      N/A     71  56  58 CALM        N/A
RUSSELLVILLE     N/A     70 N/A N/A MISG        N/A
SHOALS AIRPORT CLEAR     70  63  78 SE3       29.92R
SHOALS TVA RES   N/A     72 N/A N/A MISG        N/A
$$

ALZ005>007-016-030400-
NORTH CENTRAL ALABAMA

CITY           SKY/WX    TMP DP  RH WIND       PRES   REMARKS
CULLMAN AG STN   N/A     70 N/A N/A N3          N/A
DECATUR AP     PTCLDY    69  65  86 N3        29.91S
HUNTSVILLE AP  PTCLDY    75  62  64 CALM      29.91R
MERIDIANVILLE  MOCLDY    70  63  78 CALM      29.92S
REDSTONE ARSN  PTCLDY    75  60  60 N2        29.91R
VINEMONT AP    FAIR      66  62  87 CALM      29.95S
$$

ALZ008>010-030400-
NORTHEAST ALABAMA

CITY           SKY/WX    TMP DP  RH WIND       PRES   REMARKS
ALBERTVILLE    PTCLDY    75  64  69 CALM      29.92S
FORT PAYNE     MOCLDY    72  57  60 N3        29.92S
SCOTTSBORO AP  MOCLDY    73  66  78 CALM      29.92S
SCOTTSBORO HCN   N/A     72 N/A N/A MISG        N/A
VALLEY HEAD      N/A     70 N/A N/A MISG        N/A
$$

TNZ076-096-097-030400-
SOUTHEASTERN MIDDLE TENNESSEE

CITY           SKY/WX    TMP DP  RH WIND       PRES   REMARKS
TULLAHOMA      CLEAR     66  63  88 CALM      29.96S
WINCHESTER     CLEAR     66  64  94 CALM      29.95R
$$

...SURROUNDING SITES...

CITY           SKY/WX    TMP DP  RH WIND       PRES   REMARKS
ATLANTA        MOCLDY    82  68  62 SE6       29.92R
ANNISTON       CLEAR     78  62  57 E5        29.90R
BIRMINGHAM     CLEAR     78  58  49 CALM      29.92R
CHATTANOOGA    MOCLDY    76  65  68 CALM      29.92R
DALTON         MOCLDY    75  68  78 CALM      29.91S
GADSDEN        CLEAR     73  52  46 NW3       29.90R
GOLDEN TRNGL   CLEAR     75  64  69 N3        29.89R
HALEYVILLE     FAIR      69  66  90 CALM      29.96R
JACKSON TN     PTCLDY    75  71  87 CALM      29.91R
MEMPHIS        PTCLDY    82  70  66 CALM      29.90R
NASHVILLE      CLEAR     76  47  35 CALM      29.93R
ROME           MOCLDY    78  65  63 NE3       29.90R
SAVANNAH       CLEAR     68  32  26 CALM      29.92R
TUPELO         CLEAR     79  67  66 NE5       29.90R
TUSCALOOSA     PTCLDY    77  69  76 CALM      29.89R
$$

...GULF COAST WEATHER...

CITY           SKY/WX    TMP DP  RH WIND       PRES   REMARKS
GULFPORT       PTCLDY    83  74  74 CALM      29.87R
PASCAGOULA     PTCLDY    80  78  94 CALM      29.88R
MOBILE         PTCLDY    83  77  82 SW3       29.89R HX  92
GULF SHORES    MOCLDY    82  77  87 W5        29.88R
PENSACOLA      MOCLDY    83  75  77 S6        29.88R HX  90
DESTIN         MOCLDY    86  73  65 W5        29.86R HX  93
PANAMA CITY    MOCLDY    85  78  81 W8        29.86R HX  97
APPALACHICOLA  CLOUDY    83  74  74 CALM      29.85R
$$



USA.gov is the U.S. government's official web portal to all federal, state and local government web resources and services.